Location: Taukkyan
(23.1052°N, 94.0030°E)
Time: 11:51:46
(UTC+00:00)

Terra - Pass Details

Date: 06 July 2020
Orbit: 701 x 703 km, 98.2° (Epoch: 15 August)

Event Time Altitude Azimuth Distance (km) Brightness Sun altitude
Exits shadow 16:19:10 17° 335° (NNW) 1,759 4.4 -39.4°
Drops below altitude 10° 16:20:13 10° 338° (NNW) 2,168 5.0 -39.5°
Sets 16:22:31 0° 343° (NNW) 3,088 6.0 -39.7°
